TimeCDT,TemperatureF,Dew PointF,Humidity,Sea Level PressureIn,VisibilityMPH,Wind Direction,Wind SpeedMPH,Gust SpeedMPH,PrecipitationIn,Events,Conditions,WindDirDegrees,DateUTC
12:53 AM,70.0,66.0,87,30.08,8.0,Calm,Calm,-,N/A,,Clear,0,2014-05-26 05:53:00
1:53 AM,68.0,66.0,93,30.08,6.0,Calm,Calm,-,N/A,,Clear,0,2014-05-26 06:53:00
2:53 AM,68.0,66.0,93,30.08,6.0,Calm,Calm,-,N/A,,Scattered Clouds,0,2014-05-26 07:53:00
3:53 AM,68.0,66.0,93,30.10,7.0,Calm,Calm,-,N/A,,Partly Cloudy,0,2014-05-26 08:53:00
4:53 AM,66.9,64.9,93,30.10,7.0,Calm,Calm,-,N/A,,Clear,0,2014-05-26 09:53:00
5:53 AM,66.9,64.9,93,30.13,4.0,Calm,Calm,-,N/A,,Clear,0,2014-05-26 10:53:00
6:53 AM,68.0,66.0,93,30.14,5.0,Calm,Calm,-,N/A,,Clear,0,2014-05-26 11:53:00
7:53 AM,75.0,66.0,73,30.16,6.0,ESE,6.9,-,N/A,,Haze,110,2014-05-26 12:53:00
8:53 AM,78.1,66.0,66,30.16,7.0,Variable,4.6,-,N/A,,Clear,0,2014-05-26 13:53:00
9:53 AM,81.0,66.0,60,30.15,7.0,Variable,3.5,-,N/A,,Clear,0,2014-05-26 14:53:00
10:53 AM,84.0,66.9,56,30.16,8.0,Variable,4.6,-,N/A,,Clear,0,2014-05-26 15:53:00
12:53 PM,90.0,63.0,40,30.13,10.0,SSW,8.1,16.1,N/A,,Clear,210,2014-05-26 17:53:00
1:53 PM,89.1,61.0,39,30.12,10.0,South,9.2,-,N/A,,Clear,190,2014-05-26 18:53:00
2:53 PM,90.0,61.0,38,30.09,10.0,South,8.1,-,N/A,,Clear,190,2014-05-26 19:53:00
3:53 PM,90.0,60.1,37,30.08,10.0,SSW,9.2,-,N/A,,Clear,200,2014-05-26 20:53:00
4:53 PM,88.0,61.0,40,30.07,10.0,South,9.2,-,N/A,,Clear,190,2014-05-26 21:53:00
5:53 PM,88.0,62.1,42,30.06,10.0,South,6.9,-,N/A,,Clear,190,2014-05-26 22:53:00
6:53 PM,84.9,64.0,49,30.07,10.0,South,6.9,-,N/A,,Clear,190,2014-05-26 23:53:00
7:53 PM,81.0,64.9,58,30.08,10.0,South,4.6,-,N/A,,Clear,190,2014-05-27 00:53:00
8:53 PM,78.1,66.0,66,30.09,10.0,SW,3.5,-,N/A,,Clear,220,2014-05-27 01:53:00
9:53 PM,73.9,66.0,76,30.11,9.0,Calm,Calm,-,N/A,,Clear,0,2014-05-27 02:53:00
10:53 PM,73.0,68.0,84,30.11,8.0,Calm,Calm,-,N/A,,Clear,0,2014-05-27 03:53:00
11:53 PM,73.9,66.9,79,30.12,8.0,South,4.6,-,N/A,,Clear,180,2014-05-27 04:53:00